Weather History for Burlington, IA

Change the Weather History Date:

Tuesday, August 27, 2013

  Actual Average Record
Temperature  
Mean Temperature 84 °F 74 °F  
Max Temperature 96 °F 84 °F 97 °F (1953)
Min Temperature 71 °F 64 °F 44 °F (1915)
Degree Days  
Heating Degree Days 0 0  
Month to date heating degree days 3 0  
Since 1 June heating degree days 26 14  
Since 1 July heating degree days 11 1  
Cooling Degree Days 19 9  
Month to date cooling degree days 218 280  
Year to date cooling degree days 822 1009  
Since 1 June cooling degree days 723 906  
Growing Degree Days 34 (Base 50)    
Moisture  
Dew Point 68 °F    
Average Humidity 65    
Maximum Humidity 93    
Minimum Humidity 36    
Precipitation  
Precipitation 0.00 in 0.14 in 1.45 in (2004)
Month to date precipitation T 3.69  
Year to date precipitation 27.06 26.67  
Sea Level Pressure  
Sea Level Pressure 29.96 in    
Wind  
Wind Speed 9 mph (SW)    
Max Wind Speed 18 mph    
Max Gust Speed 24 mph    
Visibility 9 miles    
Events      
T = Trace of Precipitation, MM = Missing Value Source: NWS Daily Summary

Daily Weather History Graph

Daily Weather History Graph

Search for Another Location

Airport:

Trip Planner

Search our weather history database for the weather conditions in past years. The results will help you decide how hot, cold, wet, or windy it might be!

Date:

Astronomy

Aug. 27, 2013 Rise Set
Actual Time 6:26 AM CDT 7:44 PM CDT
Civil Twilight 5:58 AM CDT 8:12 PM CDT
Nautical Twilight 5:24 AM CDT 8:46 PM CDT
Astronomical Twilight 4:48 AM CDT 9:22 PM CDT
Moon 11:35 PM CDT (8/27) 1:27 PM CDT (8/27)
Length of Visible Light 14h 14m
Length of Day
13h 17m
Waning Gibbous, 57% of the Moon is Illuminated
Aug 27
Waning Gibbous
Aug 28
Last Quarter
Sep 5
New
Sep 12
First Quarter
Sep 19
Full

Hourly Weather History & Observations

Time (CDT) Temp. Heat Index Dew Point Humidity Pressure Visibility Wind Dir Wind Speed Gust Speed Precip Events Conditions
12:53 AM 75.9 °F - 69.1 °F 79% 30.01 in 10.0 mi SW 5.8 mph - N/A   Clear
1:53 AM 75.9 °F - 70.0 °F 82% 30.00 in 10.0 mi SW 5.8 mph - N/A   Clear
2:53 AM 75.0 °F - 70.0 °F 84% 30.00 in 10.0 mi SSW 5.8 mph - N/A   Clear
3:53 AM 73.9 °F - 70.0 °F 87% 29.99 in 10.0 mi SW 5.8 mph - N/A   Clear
4:53 AM 73.0 °F - 70.0 °F 90% 29.99 in 10.0 mi SSW 5.8 mph - N/A   Clear
5:53 AM 72.0 °F - 70.0 °F 93% 30.00 in 10.0 mi SSW 4.6 mph - N/A   Clear
6:53 AM 71.1 °F - 70.0 °F 96% 30.01 in 6.0 mi SSW 4.6 mph - N/A   Clear
7:53 AM 75.0 °F - 72.0 °F 90% 30.02 in 7.0 mi South 4.6 mph - N/A   Clear
8:53 AM 79.0 °F - 72.0 °F 79% 30.01 in 8.0 mi Variable 6.9 mph 18.4 mph N/A   Clear
9:53 AM 84.0 °F 89.0 °F 71.1 °F 65% 30.01 in 7.0 mi WSW 11.5 mph - N/A   Clear
10:53 AM 87.1 °F 92.8 °F 71.1 °F 59% 29.99 in 8.0 mi WSW 13.8 mph 19.6 mph N/A   Clear
11:53 AM 90.0 °F 95.4 °F 70.0 °F 52% 29.98 in 9.0 mi WSW 11.5 mph 18.4 mph N/A   Clear
12:53 PM 93.0 °F 97.9 °F 69.1 °F 45% 29.95 in 9.0 mi WSW 12.7 mph 19.6 mph N/A   Clear
1:53 PM 93.9 °F 100.3 °F 70.0 °F 46% 29.93 in 10.0 mi WSW 13.8 mph 21.9 mph N/A   Clear
2:53 PM 96.1 °F 99.9 °F 66.9 °F 38% 29.91 in 10.0 mi WSW 17.3 mph 20.7 mph N/A   Clear
3:53 PM 96.1 °F 99.3 °F 66.0 °F 37% 29.90 in 7.0 mi WSW 13.8 mph - N/A   Clear
4:53 PM 95.0 °F 97.4 °F 64.9 °F 37% 29.90 in 10.0 mi WSW 12.7 mph 18.4 mph N/A   Clear
5:53 PM 93.9 °F 96.1 °F 64.9 °F 38% 29.89 in 10.0 mi WSW 12.7 mph - N/A   Clear
6:53 PM 89.1 °F 93.7 °F 69.1 °F 52% 29.89 in 10.0 mi SSW 5.8 mph - N/A   Clear
7:53 PM 84.0 °F 86.3 °F 66.0 °F 55% 29.90 in 10.0 mi SSW 8.1 mph - N/A   Clear
8:53 PM 82.0 °F 83.8 °F 64.9 °F 56% 29.92 in 10.0 mi SSW 8.1 mph - N/A   Clear
9:53 PM 81.0 °F 82.7 °F 64.9 °F 58% 29.93 in 10.0 mi SW 6.9 mph - N/A   Clear
10:53 PM 80.1 °F 81.9 °F 64.9 °F 60% 29.93 in 9.0 mi SW 8.1 mph - N/A   Clear
11:53 PM 79.0 °F - 64.9 °F 62% 29.93 in 10.0 mi SW 6.9 mph - N/A   Clear